NIEUW!!! Volg onze weer- en natuurfoto's op Instagram @ weerstationmaaseik.be

WS Maaseik 1 Meer informatie WS Maaseik 1


WS Maaseik 2 Meer informatie WS Maaseik 2


Regen radar Meer informatie rain snow radar


Bezoek onze andere website:

Vorige versie
weerstation Maaseik


Bezoek ook eens deze sites:

Weerstation Geleen

Weerstation Luyksgestel



Het weer levert geen direct gevaar op.    Er zijn geen waarschuwingen afgegeven.

Weather Underground Historische gegevens

Dagelijkse Samenvatting oktober 19, 2018 Eenheden:  Metrisch    Engels   Beide
« Vorige Dag
Volgende Dag »
Dagelijkse Wekelijkse Maandelijkse Jaarlijkse Aangepaste
  Huidig: Hoog: Laag: Gemiddeld:
Temperatuur: -12.2 °C -17.8 °C -12.2 °C -11.2 °C
Dauwpunt: -13.9 °C -17.8 °C -13.9 °C -13.2 °C
Vochtigheid: 81 % Humidity % 78 % 78 %
Wind snelheid: 15.6 km/h 0 km/h 10.3 km/h 18.7 km/h
Windvlaag: 20.8 km/h 0 km/h - -
Wind:NW - - South
Luchtdruk: 35702 hPa 0 hPa 35702 hPa -
Neerslag: 0 mm      
Historical Graphs
 
 
Tabel voor oktober 19, 2018
Tijd Temperatuur Dauwpunt Luchtdruk Wind Wind snelheid Windvlaag Vochtigheid Regenval per uur
-17.8 °C -17.8 °C 0 hPa Calm     Humidity % 0 mm
00:04 -10.2 °C -12.3 °C 35702 hPa NNE 25.9 km/h 33.6 km/h 78 % 0 mm
00:09 -10.2 °C -12.3 °C 35702 hPa NE 28.5 km/h 36.2 km/h 78 % 0 mm
00:14 -10.2 °C -12.3 °C 35702 hPa NE 28.5 km/h 36.2 km/h 78 % 0 mm
00:19 -10.2 °C -12.3 °C 35702 hPa NE 36.2 km/h 36.2 km/h 78 % 0 mm
00:24 -10.2 °C -12.3 °C 35702 hPa NNE 36.2 km/h 31.1 km/h 78 % 0 mm
00:29 -10.2 °C -12.3 °C 35702 hPa NE 33.6 km/h 36.2 km/h 78 % 0 mm
00:34 -10.3 °C -12.4 °C 35702 hPa NE 33.6 km/h 36.2 km/h 78 % 0 mm
00:39 -10.3 °C -12.4 °C 35702 hPa NNE 25.9 km/h 44.1 km/h 78 % 0 mm
00:44 -10.3 °C -12.4 °C 35702 hPa NE 31.1 km/h 44.1 km/h 78 % 0 mm
00:49 -10.3 °C -12.4 °C 35702 hPa NNE 23.3 km/h 44.1 km/h 78 % 0 mm
00:54 -10.3 °C -12.4 °C 35702 hPa NNE 28.5 km/h 31.1 km/h 78 % 0 mm
00:59 -10.3 °C -12.4 °C 35702 hPa NNE 23.3 km/h 31.1 km/h 78 % 0 mm
01:04 -10.3 °C -12.4 °C 35702 hPa NNE 18.2 km/h 31.1 km/h 78 % 0 mm
01:09 -10.4 °C -12.5 °C 35702 hPa NNE 20.8 km/h 28.5 km/h 78 % 0 mm
01:14 -10.4 °C -12.5 °C 35702 hPa NNE 25.9 km/h 25.9 km/h 78 % 0 mm
01:19 -10.4 °C -12.6 °C 35702 hPa NNE 28.5 km/h 25.9 km/h 78 % 0 mm
01:24 -10.4 °C -12.6 °C 35702 hPa NNE 23.3 km/h 28.5 km/h 78 % 0 mm
01:29 -10.4 °C -12.6 °C 35702 hPa NE 31.1 km/h 28.5 km/h 78 % 0 mm
01:34 -10.4 °C -12.6 °C 35702 hPa NE 25.9 km/h 31.1 km/h 78 % 0 mm
01:39 -10.4 °C -12.6 °C 35702 hPa NE 28.5 km/h 33.6 km/h 78 % 0 mm
01:44 -10.4 °C -12.6 °C 35702 hPa NE 28.5 km/h 33.6 km/h 78 % 0 mm
01:49 -10.5 °C -12.6 °C 35702 hPa NE 28.5 km/h 33.6 km/h 78 % 0 mm
01:54 -10.5 °C -12.6 °C 35702 hPa NE 23.3 km/h 33.6 km/h 78 % 0 mm
01:59 -10.5 °C -12.6 °C 35702 hPa NE 15.6 km/h 33.6 km/h 78 % 0 mm
02:04 -10.5 °C -12.6 °C 35702 hPa NNE 25.9 km/h 33.6 km/h 78 % 0 mm
02:09 -10.5 °C -12.6 °C 35702 hPa NNE 25.9 km/h 28.5 km/h 78 % 0 mm
02:14 -10.6 °C -12.6 °C 35702 hPa NE 31.1 km/h 28.5 km/h 78 % 0 mm
02:19 -10.6 °C -12.6 °C 35702 hPa NE 20.8 km/h 31.1 km/h 78 % 0 mm
02:24 -10.6 °C -12.7 °C 35702 hPa NE 23.3 km/h 31.1 km/h 78 % 0 mm
02:29 -10.6 °C -12.7 °C 35702 hPa NNE 28.5 km/h 31.1 km/h 78 % 0 mm
02:34 -10.6 °C -12.7 °C 35702 hPa NE 18.2 km/h 28.5 km/h 78 % 0 mm
02:39 -10.6 °C -12.7 °C 35702 hPa NE 12.9 km/h 28.5 km/h 78 % 0 mm
02:44 -10.6 °C -12.7 °C 35702 hPa ENE 23.3 km/h 38.8 km/h 78 % 0 mm
02:49 -10.6 °C -12.7 °C 35702 hPa NE 20.8 km/h 38.8 km/h 78 % 0 mm
02:54 -10.6 °C -12.7 °C 35702 hPa NE 15.6 km/h 38.8 km/h 78 % 0 mm
02:59 -10.7 °C -12.7 °C 35702 hPa NE 23.3 km/h 25.9 km/h 78 % 0 mm
03:04 -10.7 °C -12.7 °C 35702 hPa NE 12.9 km/h 25.9 km/h 78 % 0 mm
03:09 -10.7 °C -12.7 °C 35702 hPa NE 15.6 km/h 25.9 km/h 78 % 0 mm
03:14 -10.7 °C -12.8 °C 35702 hPa NE 18.2 km/h 23.3 km/h 78 % 0 mm
03:19 -10.7 °C -12.8 °C 35702 hPa NE 12.9 km/h 23.3 km/h 78 % 0 mm
03:24 -10.8 °C -12.8 °C 35702 hPa NE 18.2 km/h 20.8 km/h 78 % 0 mm
03:29 -10.9 °C -12.9 °C 35702 hPa NNW 15.6 km/h 18.2 km/h 78 % 0 mm
03:34 -11.1 °C -13.1 °C 35702 hPa NNW 15.6 km/h 18.2 km/h 78 % 0 mm
03:39 -11.2 °C -13.2 °C 35702 hPa NNW 18.2 km/h 18.2 km/h 78 % 0 mm
03:44 -11.2 °C -13.3 °C 35702 hPa NNW 18.2 km/h 18.2 km/h 78 % 0 mm
03:49 -11.3 °C -13.3 °C 35702 hPa NNW 15.6 km/h 18.2 km/h 78 % 0 mm
03:54 -11.3 °C -13.3 °C 35702 hPa NNW 18.2 km/h 18.2 km/h 78 % 0 mm
03:59 -11.3 °C -13.4 °C 35702 hPa NNW 12.9 km/h 18.2 km/h 78 % 0 mm
04:04 -11.4 °C -13.4 °C 35702 hPa NNE 10.3 km/h 18.2 km/h 78 % 0 mm
04:09 -11.4 °C -13.4 °C 35702 hPa NNW 12.9 km/h 18.2 km/h 78 % 0 mm
04:14 -11.4 °C -13.4 °C 35702 hPa NNE 12.9 km/h 18.2 km/h 78 % 0 mm
04:19 -11.4 °C -13.4 °C 35702 hPa NNW 10.3 km/h 12.9 km/h 78 % 0 mm
04:24 -11.4 °C -13.4 °C 35702 hPa NNE 10.3 km/h 12.9 km/h 79 % 0 mm
04:29 -11.4 °C -13.4 °C 35702 hPa NNE 12.9 km/h 12.9 km/h 79 % 0 mm
04:34 -11.4 °C -13.4 °C 35702 hPa North 12.9 km/h 12.9 km/h 79 % 0 mm
04:39 -11.5 °C -13.4 °C 35702 hPa NNW 15.6 km/h 15.6 km/h 79 % 0 mm
04:44 -11.5 °C -13.4 °C 35702 hPa NNW 12.9 km/h 15.6 km/h 79 % 0 mm
04:49 -11.5 °C -13.4 °C 35702 hPa NNW 15.6 km/h 15.6 km/h 79 % 0 mm
04:54 -11.5 °C -13.4 °C 35702 hPa NNW 15.6 km/h 15.6 km/h 79 % 0 mm
04:59 -11.5 °C -13.4 °C 35702 hPa NNW 15.6 km/h 15.6 km/h 79 % 0 mm
05:04 -11.6 °C -13.5 °C 35702 hPa NNW 12.9 km/h 15.6 km/h 79 % 0 mm
05:09 -11.6 °C -13.5 °C 35702 hPa NNW 15.6 km/h 15.6 km/h 79 % 0 mm
05:14 -11.6 °C -13.6 °C 35702 hPa NNW 12.9 km/h 15.6 km/h 79 % 0 mm
05:19 -11.6 °C -13.6 °C 35702 hPa NNW 15.6 km/h 15.6 km/h 79 % 0 mm
05:24 -11.6 °C -13.6 °C 35702 hPa North 10.3 km/h 15.6 km/h 79 % 0 mm
05:29 -11.7 °C -13.6 °C 35702 hPa North 12.9 km/h 15.6 km/h 79 % 0 mm
05:34 -11.7 °C -13.6 °C 35702 hPa NNW 15.6 km/h 15.6 km/h 79 % 0 mm
05:39 -11.7 °C -13.6 °C 35702 hPa NNW 18.2 km/h 15.6 km/h 79 % 0 mm
05:44 -11.7 °C -13.7 °C 35702 hPa NNW 12.9 km/h 18.2 km/h 79 % 0 mm
05:49 -11.7 °C -13.7 °C 35702 hPa NNW 10.3 km/h 18.2 km/h 79 % 0 mm
05:54 -11.7 °C -13.7 °C 35702 hPa NNW 18.2 km/h 18.2 km/h 79 % 0 mm
05:59 -11.7 °C -13.7 °C 35702 hPa NNW 15.6 km/h 18.2 km/h 79 % 0 mm
06:04 -11.7 °C -13.6 °C 35702 hPa NNW 12.9 km/h 18.2 km/h 80 % 0 mm
06:09 -11.8 °C -13.6 °C 35702 hPa NNW 15.6 km/h 18.2 km/h 80 % 0 mm
06:14 -11.8 °C -13.6 °C 35702 hPa NNW 12.9 km/h 15.6 km/h 80 % 0 mm
06:19 -11.8 °C -13.7 °C 35702 hPa NNW 15.6 km/h 15.6 km/h 80 % 0 mm
06:24 -11.8 °C -13.7 °C 35702 hPa NNW 18.2 km/h 15.6 km/h 80 % 0 mm
06:29 -11.9 °C -13.7 °C 35702 hPa NNW 15.6 km/h 18.2 km/h 80 % 0 mm
06:34 -11.9 °C -13.7 °C 35702 hPa NW 10.3 km/h 18.2 km/h 80 % 0 mm
06:39 -11.9 °C -13.8 °C 35702 hPa NNW 12.9 km/h 18.2 km/h 80 % 0 mm
06:44 -11.9 °C -13.8 °C 35702 hPa NNW 12.9 km/h 15.6 km/h 80 % 0 mm
06:49 -11.9 °C -13.8 °C 35702 hPa NNW 15.6 km/h 12.9 km/h 80 % 0 mm
06:54 -11.9 °C -13.8 °C 35702 hPa NNW 12.9 km/h 12.9 km/h 80 % 0 mm
06:59 -12 °C -13.8 °C 35702 hPa NNW 18.2 km/h 18.2 km/h 80 % 0 mm
07:04 -12 °C -13.7 °C 35702 hPa NNW 15.6 km/h 18.2 km/h 81 % 0 mm
07:09 -12 °C -13.7 °C 35702 hPa NNW 18.2 km/h 18.2 km/h 81 % 0 mm
07:14 -12 °C -13.7 °C 35702 hPa North 15.6 km/h 20.8 km/h 81 % 0 mm
07:19 -12.1 °C -13.8 °C 35702 hPa NNW 12.9 km/h 20.8 km/h 81 % 0 mm
07:24 -12.1 °C -13.8 °C 35702 hPa North 10.3 km/h 20.8 km/h 81 % 0 mm
07:29 -12.1 °C -13.8 °C 35702 hPa NNW 15.6 km/h 15.6 km/h 81 % 0 mm
07:34 -12.1 °C -13.8 °C 35702 hPa NNW 15.6 km/h 18.2 km/h 81 % 0 mm
07:39 -12.1 °C -13.8 °C 35702 hPa NNW 18.2 km/h 18.2 km/h 81 % 0 mm
07:44 -12.2 °C -13.9 °C 35702 hPa NW 15.6 km/h 20.8 km/h 81 % 0 mm
Weerstation Maaseik (B)
Gegevens verzameld door Weather Underground - 3 mb

Script ontwikkeld door  Jim McMurry - jmcmurry@mwt.net Aangepast voor de template door  Wim van der Kuil - Leuven-Template.eu

U vindt ons ook hier:

Het Weer Aktueel

Weather Underground

AWEKAS